Change the Weather History Date:

Monday, June 4, 2012

  Actual Average Record
Temperature  
Mean Temperature 85 °F 82 °F  
Max Temperature 93 °F 89 °F 98 °F (1985)
Min Temperature 77 °F 75 °F 65 °F (1916)
Degree Days  
Heating Degree Days 0 0  
Month to date heating degree days 0 0  
Since 1 June heating degree days 0 0  
Since 1 July heating degree days 55 128  
Cooling Degree Days 20 17  
Month to date cooling degree days 70 68  
Year to date cooling degree days 1611 1424  
Since 1 June cooling degree days 70 68  
Growing Degree Days 35 (Base 50)    
Moisture  
Dew Point 72 °F    
Average Humidity 70    
Maximum Humidity 91    
Minimum Humidity 49    
Precipitation  
Precipitation 0.00 in 0.29 in 2.27 in (1959)
Month to date precipitation 1.40 1.12  
Year to date precipitation 32.48 16.47  
Snow  
Snow 0.00 in - - ()
Month to date snowfall 0.0  
Since 1 June snowfall 0.0  
Since 1 July snowfall 0.0  
Snow Depth 0.00 in    
Sea Level Pressure  
Sea Level Pressure 29.96 in    
Wind  
Wind Speed 7 mph (SW)    
Max Wind Speed 16 mph    
Max Gust Speed 23 mph    
Visibility 10 miles    
Events      
T = Trace of Precipitation, MM = Missing Value Source: NWS Daily Summary

Daily Weather History Graph

Daily Weather History Graph

Search for Another Location

Airport or City:

Trip Planner

Search our weather history database for the weather conditions in past years. The results will help you decide how hot, cold, wet, or windy it might be!

Date:

Astronomy

Jun. 04, 2012 Rise Set
Actual Time 6:29 AM EDT 8:10 PM EDT
Civil Twilight 6:03 AM EDT 8:35 PM EDT
Nautical Twilight 5:32 AM EDT 9:06 PM EDT
Astronomical Twilight 5:00 AM EDT 9:39 PM EDT
Moon 8:39 PM EDT (6/4) 6:33 AM EDT (6/4)
Length of Visible Light 14h 32m
Length of Day
13h 40m
Full, 100% of the Moon is Illuminated
Jun 4
Full
Jun 11
Last Quarter
Jun 19
New
Jun 26
First Quarter
Jul 3
Full

Hourly Weather History & Observations

Time (EDT) Temp. Heat Index Dew Point Humidity Pressure Visibility Wind Dir Wind Speed Gust Speed Precip Events Conditions
12:53 AM 80.1 °F 84.5 °F 73.9 °F 81% 30.01 in 10.0 mi SE 8.1 mph - N/A   Mostly Cloudy
1:53 AM 80.1 °F 85.1 °F 75.0 °F 85% 29.99 in 10.0 mi East 4.6 mph - N/A   Mostly Cloudy
2:53 AM 80.1 °F 85.1 °F 75.0 °F 85% 29.96 in 10.0 mi ESE 4.6 mph - N/A   Mostly Cloudy
3:53 AM 79.0 °F - 75.0 °F 88% 29.94 in 10.0 mi SSE 3.5 mph - N/A   Mostly Cloudy
4:53 AM 78.1 °F - 75.0 °F 90% 29.94 in 10.0 mi Calm Calm - N/A   Scattered Clouds
5:53 AM 78.8 °F - 73.4 °F 83% 29.95 in 10.0 mi SSW 4.6 mph - N/A   Scattered Clouds
6:53 AM 78.1 °F - 75.0 °F 90% 29.98 in 10.0 mi SW 3.5 mph - N/A   Scattered Clouds
7:53 AM 80.1 °F 85.1 °F 75.0 °F 85% 29.99 in 10.0 mi SW 4.6 mph - N/A   Mostly Cloudy
8:53 AM 82.9 °F 88.0 °F 72.0 °F 69% 30.00 in 10.0 mi SW 8.1 mph - N/A   Scattered Clouds
9:53 AM 84.9 °F 90.1 °F 71.1 °F 63% 30.00 in 10.0 mi WSW 6.9 mph - N/A   Scattered Clouds
10:53 AM 87.1 °F 89.9 °F 66.9 °F 51% 30.00 in 10.0 mi WSW 9.2 mph - N/A   Mostly Cloudy
11:53 AM 90.0 °F 93.6 °F 68.0 °F 48% 29.99 in 10.0 mi Variable 5.8 mph - N/A   Mostly Cloudy
12:53 PM 90.0 °F 93.6 °F 68.0 °F 48% 29.97 in 10.0 mi WSW 9.2 mph - N/A   Mostly Cloudy
1:53 PM 89.1 °F 94.1 °F 70.0 °F 53% 29.96 in 10.0 mi WSW 8.1 mph - N/A   Mostly Cloudy
2:53 PM 91.9 °F 97.4 °F 70.0 °F 48% 29.95 in 10.0 mi WSW 12.7 mph 20.7 mph N/A   Mostly Cloudy
3:53 PM 91.9 °F 97.4 °F 70.0 °F 48% 29.94 in 10.0 mi West 11.5 mph 18.4 mph N/A   Mostly Cloudy
4:53 PM 91.0 °F 97.6 °F 71.1 °F 52% 29.92 in 10.0 mi West 12.7 mph 20.7 mph N/A   Overcast
5:53 PM 90.0 °F 95.4 °F 70.0 °F 52% 29.91 in 10.0 mi West 12.7 mph 18.4 mph N/A   Overcast
6:53 PM 88.0 °F 93.8 °F 71.1 °F 57% 29.91 in 10.0 mi West 10.4 mph 17.3 mph N/A   Overcast
7:53 PM 86.0 °F 92.2 °F 72.0 °F 63% 29.92 in 10.0 mi West 10.4 mph 18.4 mph N/A   Overcast
8:53 PM 84.9 °F 91.4 °F 73.0 °F 67% 29.91 in 10.0 mi West 5.8 mph - N/A   Overcast
9:53 PM 82.9 °F 88.8 °F 73.0 °F 72% 29.91 in 10.0 mi WSW 8.1 mph - N/A   Overcast
10:53 PM 82.9 °F 89.4 °F 73.9 °F 74% 29.92 in 10.0 mi WSW 6.9 mph - N/A   Overcast
11:53 PM 82.9 °F 88.8 °F 73.0 °F 72% 29.92 in 10.0 mi WSW 8.1 mph - N/A   Overcast